| time (UTC) | temp F | wind direction | speed knots | gust knots | rain 1hr in | rain 24hr in | rain mn in | humidity % | barometer mb |
| 20260504185018 | 85 | 148 | 7.0 | 15.6 | 0.00 | 0.00 | 0.00 | 45 | 1010.7 |
| 20260504184049 | 85 | 148 | 5.2 | 14.8 | 0.00 | 0.00 | 0.00 | 45 | 1010.8 |
| 20260504183024 | 85 | 160 | 5.2 | 14.8 | 0.00 | 0.00 | 0.00 | 45 | 1010.9 |
| 20260504182039 | 84 | 171 | 5.2 | 16.5 | 0.00 | 0.00 | 0.00 | 45 | 1011.2 |
| 20260504181029 | 83 | 163 | 6.1 | 15.6 | 0.00 | 0.00 | 0.00 | 45 | 1011.4 |
| 20260504180024 | 83 | 182 | 7.8 | 18.2 | 0.00 | 0.00 | 0.00 | 45 | 1011.4 |
| 20260504175020 | 83 | 161 | 7.8 | 25.2 | 0.00 | 0.00 | 0.00 | 44 | 1011.6 |
| 20260504174015 | 83 | 161 | 7.0 | 15.6 | 0.00 | 0.00 | 0.00 | 45 | 1011.7 |
| 20260504173045 | 82 | 169 | 6.1 | 13.0 | 0.00 | 0.00 | 0.00 | 45 | 1011.8 |
| 20260504172020 | 82 | 174 | 6.1 | 18.2 | 0.00 | 0.00 | 0.00 | 45 | 1012.1 |
| 20260504171015 | 81 | 168 | 6.1 | 14.8 | 0.00 | 0.00 | 0.00 | 45 | 1012.2 |
| 20260504151018 | 75 | 174 | 4.3 | 13.0 | 0.00 | 0.00 | 0.00 | 54 | 1013.5 |
| 20260504141020 | 81 | 182 | 5.2 | 11.3 | 0.00 | 0.00 | 0.00 | 43 | 1013.9 |
| 20260504081028 | 61 | 180 | 4.3 | 11.3 | 0.00 | 0.00 | 0.00 | 69 | 1014.4 |
| 20260504045023 | 65 | 171 | 3.5 | 8.7 | 0.00 | 0.00 | 0.00 | 59 | 1016.2 |
| 20260504044018 | 65 | 168 | 3.5 | 8.7 | 0.00 | 0.00 | 0.00 | 59 | 1016.3 |
| 20260504043028 | 65 | 164 | 2.6 | 7.0 | 0.00 | 0.00 | 0.00 | 58 | 1016.3 |
| 20260504042022 | 66 | 167 | 1.7 | 3.5 | 0.00 | 0.00 | 0.00 | 57 | 1016.4 |
| 20260504041042 | 66 | 168 | 2.6 | 7.8 | 0.00 | 0.00 | 0.00 | 56 | 1016.4 |
| 20260504040027 | 66 | 160 | 2.6 | 7.0 | 0.00 | 0.00 | 0.00 | 55 | 1016.4 |
| 20260504035022 | 67 | 161 | 1.7 | 7.0 | 0.00 | 0.00 | 0.00 | 54 | 1016.5 |
| 20260504034017 | 67 | 153 | 2.6 | 7.8 | 0.00 | 0.00 | 0.00 | 52 | 1016.4 |
| 20260504033107 | 68 | 163 | 3.5 | 9.6 | 0.00 | 0.00 | 0.00 | 52 | 1016.3 |
| 20260504032022 | 68 | 161 | 3.5 | 7.8 | 0.00 | 0.00 | 0.00 | 51 | 1016.4 |
| 20260504031017 | 68 | 171 | 3.5 | 7.8 | 0.00 | 0.00 | 0.00 | 51 | 1016.3 |
| 20260504030027 | 69 | 165 | 2.6 | 6.1 | 0.00 | 0.00 | 0.00 | 50 | 1016.1 |
| 20260504025023 | 69 | 155 | 3.5 | 11.3 | 0.00 | 0.00 | 0.00 | 48 | 1016.2 |
| 20260504024018 | 70 | 174 | 2.6 | 7.8 | 0.00 | 0.00 | 0.00 | 48 | 1016.1 |
| 20260504023028 | 70 | 155 | 2.6 | 7.8 | 0.00 | 0.00 | 0.00 | 47 | 1016.1 |
| 20260504022023 | 71 | 160 | 2.6 | 6.1 | 0.00 | 0.00 | 0.00 | 47 | 1016.0 |
| 20260504021019 | 71 | 162 | 2.6 | 6.1 | 0.00 | 0.00 | 0.00 | 45 | 1016.1 |
| 20260504020048 | 72 | 164 | 3.5 | 8.7 | 0.00 | 0.00 | 0.00 | 45 | 1016.0 |
| 20260504015024 | 72 | 160 | 2.6 | 7.0 | 0.00 | 0.00 | 0.00 | 44 | 1016.0 |
| 20260504014018 | 73 | 155 | 1.7 | 5.2 | 0.00 | 0.00 | 0.00 | 42 | 1015.9 |
| 20260504013028 | 73 | 153 | 1.7 | 3.5 | 0.00 | 0.00 | 0.00 | 41 | 1015.8 |
| 20260504012023 | 74 | 155 | 1.7 | 7.0 | 0.00 | 0.00 | 0.00 | 38 | 1015.7 |
| 20260504011018 | 75 | 168 | 3.5 | 11.3 | 0.00 | 0.00 | 0.00 | 36 | 1015.7 |
| 20260504010028 | 76 | 160 | 3.5 | 8.7 | 0.00 | 0.00 | 0.00 | 34 | 1015.9 |
| 20260504005023 | 77 | 158 | 3.5 | 9.6 | 0.00 | 0.00 | 0.00 | 34 | 1015.8 |
| 20260504004038 | 78 | 160 | 3.5 | 9.6 | 0.00 | 0.00 | 0.00 | 33 | 1015.7 |
| 20260504003028 | 79 | 165 | 3.5 | 9.6 | 0.00 | 0.00 | 0.00 | 31 | 1015.8 |
| 20260504002023 | 80 | 176 | 3.5 | 7.8 | 0.00 | 0.00 | 0.00 | 30 | 1015.8 |
| 20260504001018 | 82 | 153 | 4.3 | 12.2 | 0.00 | 0.00 | 0.00 | 29 | 1015.9 |
| 20260504000028 | 83 | 161 | 4.3 | 11.3 | 0.00 | 0.00 | 0.00 | 28 | 1016.0 |
| 20260503235042 | 83 | 166 | 3.5 | 9.6 | 0.00 | 0.00 | 0.00 | 27 | 1015.9 |
| 20260503234037 | 84 | 163 | 3.5 | 8.7 | 0.00 | 0.00 | 0.00 | 27 | 1016.0 |
| 20260503233047 | 84 | 153 | 4.3 | 8.7 | 0.00 | 0.00 | 0.00 | 26 | 1016.1 |
| 20260503232022 | 84 | 160 | 3.5 | 12.2 | 0.00 | 0.00 | 0.00 | 26 | 1016.3 |
| 20260503231036 | 84 | 155 | 4.3 | 9.6 | 0.00 | 0.00 | 0.00 | 27 | 1016.3 |
| 20260503230027 | 85 | 160 | 4.3 | 12.2 | 0.00 | 0.00 | 0.00 | 26 | 1016.3 |
| 20260503225022 | 85 | 149 | 5.2 | 21.7 | 0.00 | 0.00 | 0.00 | 27 | 1016.3 |
| 20260503224017 | 85 | 161 | 4.3 | 11.3 | 0.00 | 0.00 | 0.00 | 27 | 1016.3 |
| 20260503223027 | 85 | 159 | 4.3 | 11.3 | 0.00 | 0.00 | 0.00 | 27 | 1016.4 |
| 20260503222022 | 86 | 160 | 3.5 | 7.8 | 0.00 | 0.00 | 0.00 | 26 | 1016.5 |
| 20260503221017 | 87 | 161 | 4.3 | 9.6 | 0.00 | 0.00 | 0.00 | 26 | 1016.7 |
| 20260503220048 | 86 | 169 | 3.5 | 9.6 | 0.00 | 0.00 | 0.00 | 25 | 1016.9 |
| 20260503215022 | 86 | 170 | 4.3 | 13.0 | 0.00 | 0.00 | 0.00 | 25 | 1016.9 |
| 20260503214017 | 87 | 179 | 4.3 | 9.6 | 0.00 | 0.00 | 0.00 | 25 | 1017.1 |
| 20260503213028 | 87 | 158 | 4.3 | 11.3 | 0.00 | 0.00 | 0.00 | 24 | 1017.2 |
| 20260503212023 | 87 | 156 | 3.5 | 9.6 | 0.00 | 0.00 | 0.00 | 25 | 1017.5 |
| 20260503211018 | 86 | 173 | 5.2 | 13.0 | 0.00 | 0.00 | 0.00 | 25 | 1017.5 |
| 20260503210049 | 87 | 155 | 4.3 | 9.6 | 0.00 | 0.00 | 0.00 | 25 | 1017.8 |
| 20260503205024 | 88 | 157 | 2.6 | 7.8 | 0.00 | 0.00 | 0.00 | 25 | 1017.9 |
| 20260503204019 | 88 | 162 | 4.3 | 11.3 | 0.00 | 0.00 | 0.00 | 25 | 1018.2 |
| 20260503203029 | 88 | 168 | 2.6 | 8.7 | 0.00 | 0.00 | 0.00 | 26 | 1018.2 |
| 20260503202024 | 87 | 141 | 1.7 | 5.2 | 0.00 | 0.00 | 0.00 | 27 | 1018.5 |
| 20260503201019 | 87 | 180 | 1.7 | 7.0 | 0.00 | 0.00 | 0.00 | 24 | 1018.6 |
| 20260503200029 | 87 | 172 | 3.5 | 8.7 | 0.00 | 0.00 | 0.00 | 25 | 1018.7 |
| 20260503195024 | 87 | 161 | 3.5 | 8.7 | 0.00 | 0.00 | 0.00 | 25 | 1019.0 |
| 20260503194019 | 87 | 171 | 3.5 | 7.8 | 0.00 | 0.00 | 0.00 | 26 | 1019.1 |
| 20260503193029 | 86 | 155 | 3.5 | 8.7 | 0.00 | 0.00 | 0.00 | 26 | 1019.2 |
| 20260503192025 | 86 | 167 | 3.5 | 9.6 | 0.00 | 0.00 | 0.00 | 28 | 1019.3 |
| 20260503191019 | 87 | 136 | 2.6 | 8.7 | 0.00 | 0.00 | 0.00 | 28 | 1019.7 |
| 20260503190029 | 86 | 93 | 1.7 | 8.7 | 0.00 | 0.00 | 0.00 | 27 | 1019.7 |